Terminal Aerodrome Forecast
Issued by NWS

Home | Current Version | Previous Version | Text Only | Print | Product List | Glossary On
Versions: 1 2 3 4 5 6 7 8 9 10 11 12 13 14 15
837
FTPA31 PHFO 051500 AAA
TAFHKO
TAF AMD
PHKO 051500Z 0515/0612 15005KT P6SM SCT025 BKN035
      TEMPO 0515/0517 -SHRA BKN025
     FM052100 29005KT P6SM SCT060
     FM060200 24005KT P6SM BKN060
     FM060600 15005KT P6SM BKN060=

USA.gov is the U.S. government's official web portal to all federal, state and local government web resources and services.